Weather History for KTVC - May, 2013

Change the Weather History Date:

Friday, May 10, 2013

  Actual Average Record
Temperature  
Mean Temperature 43 °F 52 °F  
Max Temperature 46 °F 64 °F 89 °F (1993)
Min Temperature 40 °F 39 °F 22 °F (1966)
Degree Days  
Heating Degree Days 22 14  
Month to date heating degree days 109 152  
Since 1 July heating degree days 6768 7219  
Cooling Degree Days 0 0  
Month to date cooling degree days 0 0  
Year to date cooling degree days 2 3  
Moisture  
Dew Point 39 °F    
Average Humidity 89    
Maximum Humidity 96    
Minimum Humidity 82    
Precipitation  
Precipitation 0.59 in 0.09 in 1.64 in (1963)
Month to date precipitation 0.68 0.82  
Year to date precipitation 10.36 9.78  
Sea Level Pressure  
Sea Level Pressure 29.96 in    
Wind  
Wind Speed 8 mph (NNE)    
Max Wind Speed 14 mph    
Max Gust Speed 20 mph    
Visibility 8 miles    
Events Rain    
T = Trace of Precipitation, MM = Missing Value Source: NWS Daily Summary

Daily Weather History Graph

Daily Weather History Graph

Search for Another Location

Airport or City:

Trip Planner

Search our weather history database for the weather conditions in past years. The results will help you decide how hot, cold, wet, or windy it might be!

Date:

Astronomy

May. 10, 2013 Rise Set
Actual Time 6:19 AM EDT 8:58 PM EDT
Civil Twilight 5:46 AM EDT 9:31 PM EDT
Nautical Twilight 5:04 AM EDT 10:14 PM EDT
Astronomical Twilight 4:16 AM EDT 11:02 PM EDT
Moon 6:43 AM EDT (5/10) 9:48 PM EDT (5/10)
Length of Visible Light 15h 45m
Length of Day
14h 38m
New Moon, 0% of the Moon is Illuminated
May 10
New Moon
May 18
First Quarter
May 25
Full
May 31
Last Quarter
Jun 8
New

Hourly Weather History & Observations

Time (EDT) Temp. Windchill Dew Point Humidity Pressure Visibility Wind Dir Wind Speed Gust Speed Precip Events Conditions
12:53 AM 44.1 °F 39.5 °F 41.0 °F 89% 30.01 in 8.0 mi NNE 8.1 mph - 0.04 in Rain Light Rain
1:00 AM 44.6 °F 40.2 °F 41.0 °F 87% 30.00 in 7.0 mi NNE 8.1 mph - 0.00 in Rain Light Rain
1:43 AM 42.8 °F 39.3 °F 41.0 °F 93% 29.99 in 10.0 mi NNE 5.8 mph - 0.03 in Rain Light Rain
2:06 AM 42.8 °F 38.6 °F 41.0 °F 93% 29.98 in 6.0 mi NNE 6.9 mph - 0.01 in Rain Light Rain
2:53 AM 44.1 °F 42.5 °F 42.1 °F 93% 29.97 in 5.0 mi NNE 3.5 mph - 0.06 in Rain Light Rain
4:08 AM 44.6 °F 39.2 °F 44.6 °F 100% 29.94 in 6.0 mi NE 10.4 mph - 0.01 in Rain Light Rain
4:53 AM 44.1 °F 38.1 °F 42.1 °F 93% 29.94 in 7.0 mi NE 11.5 mph - 0.05 in Rain Light Rain
5:53 AM 43.0 °F 36.8 °F 41.0 °F 93% 29.94 in 6.0 mi NNE 11.5 mph - 0.07 in Rain Light Rain
6:41 AM 42.8 °F 37.0 °F 39.2 °F 87% 29.93 in 4.0 mi NNE 10.4 mph - 0.07 in Rain Rain
6:53 AM 42.1 °F 35.2 °F 39.9 °F 92% 29.94 in 4.0 mi NNE 12.7 mph - 0.08 in Rain Light Rain
7:53 AM 42.1 °F 35.7 °F 39.9 °F 92% 29.96 in 5.0 mi NNE 11.5 mph - 0.05 in Rain Light Rain
8:53 AM 41.0 °F 34.7 °F 39.0 °F 93% 29.96 in 5.0 mi NNE 10.4 mph - 0.07 in Rain Rain
9:01 AM 41.0 °F 35.8 °F 39.2 °F 93% 29.95 in 6.0 mi NE 8.1 mph - 0.01 in Rain Light Rain
9:35 AM 41.0 °F 33.9 °F 39.2 °F 93% 29.95 in 6.0 mi NE 12.7 mph - 0.05 in Rain Light Rain
9:53 AM 41.0 °F 33.9 °F 37.9 °F 89% 29.97 in 6.0 mi NE 12.7 mph - 0.07 in Rain Light Rain
10:53 AM 39.9 °F 33.9 °F 37.9 °F 93% 29.98 in 9.0 mi NNE 9.2 mph - 0.02 in Rain Light Rain
11:53 AM 41.0 °F 34.7 °F 37.9 °F 89% 29.97 in 10.0 mi NNE 10.4 mph - 0.00 in Rain Light Rain
1:53 PM 42.1 °F 37.1 °F 39.0 °F 89% 29.98 in 10.0 mi North 8.1 mph - 0.01 in Rain Light Rain
2:53 PM 42.1 °F 36.1 °F 39.0 °F 89% 29.97 in 10.0 mi North 10.4 mph - 0.00 in   Overcast
3:53 PM 43.0 °F 37.7 °F 39.0 °F 86% 29.96 in 10.0 mi NNE 9.2 mph - N/A   Overcast
4:45 PM 42.8 °F 38.6 °F 37.4 °F 81% 29.94 in 10.0 mi North 6.9 mph - N/A   Overcast
4:53 PM 43.0 °F 37.7 °F 37.9 °F 82% 29.96 in 10.0 mi North 9.2 mph - N/A   Overcast
5:53 PM 43.0 °F 37.2 °F 37.9 °F 82% 29.96 in 10.0 mi North 10.4 mph - N/A   Overcast
6:53 PM 42.1 °F 37.1 °F 37.0 °F 82% 29.96 in 10.0 mi North 8.1 mph - N/A   Overcast
7:53 PM 42.1 °F 38.4 °F 37.0 °F 82% 29.96 in 10.0 mi NNE 5.8 mph - N/A   Overcast
8:04 PM 42.8 °F 38.6 °F 37.4 °F 81% 29.94 in 10.0 mi NNE 6.9 mph - N/A   Overcast
8:42 PM 42.8 °F 39.3 °F 37.4 °F 81% 29.94 in 10.0 mi NE 5.8 mph - N/A   Overcast
8:53 PM 41.0 °F 36.4 °F 37.0 °F 86% 29.96 in 10.0 mi NE 6.9 mph - N/A   Overcast
9:53 PM 42.1 °F 37.7 °F 37.0 °F 82% 29.96 in 10.0 mi NE 6.9 mph - N/A   Overcast
10:53 PM 42.1 °F 40.2 °F 37.0 °F 82% 29.97 in 10.0 mi NNE 3.5 mph - N/A   Overcast
11:45 PM 42.8 °F 41.1 °F 37.4 °F 81% 29.94 in 10.0 mi NNE 3.5 mph - N/A   Overcast
11:53 PM 42.1 °F 40.2 °F 37.0 °F 82% 29.96 in 10.0 mi NNE 3.5 mph - N/A   Overcast